User: anonymous   Login
Location: Unspecified
(0.0000°N, 0.0000°E)
Time: 10:34:21
(UTC+00:00)
Language:

DMSP B5D2-7 - Orbit

View from above orbital plane
View from above orbital plane
View from above satellite
View from above satellite

Ground track
Ground track

The orbit data is extracted from the following two-line orbital elements,

1 23233U 94057A   18183.82530040 0.00000000  00000-0  00000-0 0    04
2 23233  99.0636 202.3469 0007000 267.3568  92.6431 14.15650300    08
Epoch (UTC): 02 July 2018 19:48:25
Eccentricity: 0.0007000
inclination: 99.0636°
perigee height: 835 km
apogee height: 845 km
right ascension of ascending node: 202.3469°
argument of perigee: 267.3568°
revolutions per day: 14.15650300
mean anomaly at epoch: 92.6431°
orbit number at epoch: 0

The dashed part of the orbit path shows where the satellite is in the earth's shadow,  

DLR